Location: North Evanston
(42.0634°N, 87.6976°W)
Time: 10:45:55
(UTC+00:00)

Injun/Solrad 3 - Pass Details

Date: 17 May 2026
Orbit: 867 x 989 km, 66.8° (Epoch: 11 June)

Event Time Altitude Azimuth Distance (km) Brightness Sun altitude
Rises 19:17:07 0° 163° (SSE) 3,494 11.1 60.5°
Reaches altitude 10° 19:20:19 10° 146° (SE) 2,581 10.4 60.0°
Maximum altitude 19:24:19 19° 103° (ESE) 2,058 9.8 59.5°
Drops below altitude 10° 19:28:23 10° 62° (ENE) 2,650 10.1 58.9°
Sets 19:31:43 0° 45° (NE) 3,623 10.7 58.4°
